Regional Weather Roundup
Issued by NWS

Home | Current Version | Previous Version | Graphics & Text | Print | Product List | Glossary On
Versions: 1 2 3 4 5 6 7 8 9 10 11 12 13 14 15 16 17 18 19 20 21 22 23 24 25 26 27 28 29 30 31 32 33 34 35 36 37 38 39 40 41 42 43 44 45 46 47 48 49 50
000
ASUS43 KDTX 300910
RWRMI
MICHIGAN HOURLY REGIONAL WEATHER ROUNDUP
NATIONAL WEATHER SERVICE DETROIT/PONTIAC MI
500 AM EDT TUE JUN 30 2015

NOTE: "FAIR" INDICATES FEW OR NO CLOUDS BELOW 12,000 FEET WITH NO
SIGNIFICANT WEATHER AND/OR OBSTRUCTION TO VISIBILITY.

MIZ047>049-052>055-059>063-066>070-074>076-081>083-301000-
SOUTHEAST LOWER MICHIGAN

CITY           SKY/WX    TMP DP  RH WIND       PRES   REMARKS
ADRIAN         CLOUDY    62  60  93 W3        29.81S
ALMA           CLOUDY    57  56  97 CALM      29.80F
ANN ARBOR      CLOUDY    63  60  90 VRB7      29.80S FOG
BAD AXE        CLEAR     52  51  95 CALM      29.82F
CARO           MOCLDY    54  53  97 CALM      29.81S
DETROIT CITY   CLOUDY    64  60  87 E6        29.80F
DETROIT        CLOUDY    64  59  83 E5        29.79F
FLINT          CLOUDY    62  56  80 CALM      29.80F
GROSSE ILE     MIX PCPN  63  61  94 NE6       29.78F
HILLSDALE      CLOUDY    61  61 100 CALM      29.81R
HOWELL         CLOUDY    59  58  96 CALM      29.80S

CITY           SKY/WX    TMP DP  RH WIND       PRES   REMARKS
JACKSON        CLOUDY    62  58  86 CALM      29.80F
LAMBERTVILLE   MOCLDY    62  59  89 CALM      29.80S FOG
LANSING        CLOUDY    61  58  90 CALM      29.80F
LAPEER         CLOUDY    57  56  95 CALM      29.81F
MONROE         RAIN      63  62  96 CALM      29.78F
MT. CLEMENS    CLOUDY    64  59  85 E7        29.78F
PONTIAC        CLOUDY    63  58  83 SE8       29.79F
PORT HOPE        N/A     58  55  90 S3        29.81S
PORT HURON     CLOUDY    59  59 100 CALM      29.82S
TRI CITIES     CLEAR     59  55  87 CALM      29.81F
MIDLAND        FAIR      55  54  97 CALM      29.80S
TROY           CLOUDY    65  59  81 E6        29.81F
SAGINAW HB     PTCLDY    55  55 100 CALM      29.79F
$$
MIZ043>046-050>051-056>058-064>065-071>073-077>080-301000-
SOUTHWEST LOWER MICHIGAN

CITY           SKY/WX    TMP DP  RH WIND       PRES   REMARKS
BATTLE CREEK   PTCLDY    61  58  90 CALM      29.81S
BENTON HARBOR  MOCLDY    61  59  93 SE5       29.77F
BIG RAPIDS     PTCLDY    55  52  88 CALM      29.79F
COLDWATER      CLOUDY    60  59  98 CALM      29.80S
FREMONT        CLOUDY    59  58  97 CALM      29.78F
HOLLAND        CLOUDY    62  58  86 S6        29.79F
GRAND RAPIDS   PTCLDY    57  56  96 SE3       29.80S
IONIA          CLOUDY    58  57  96 CALM      29.80S
KALAMAZOO      MOCLDY    61  58  90 S3        29.80S
LUDINGTON      CLOUDY    63  59  87 CALM      29.77F
MARSHALL       CLOUDY    60  59  96 CALM      29.80R
MOUNT PLEASANT CLEAR     54  53  96 CALM      29.80S FOG
MUSKEGON       MOCLDY    62  58  86 S6        29.78F
SOUTH HAVEN    CLOUDY    61  58  91 CALM      29.78F
$$
MIZ016>042-301000-
NORTHERN LOWER MICHIGAN

CITY           SKY/WX    TMP DP  RH WIND       PRES   REMARKS
ALPENA         CLEAR     54  51  90 CALM      29.80F
BEAVER ISLAND  CLOUDY    58  57  97 SW6       29.78S FOG
BELLAIRE       CLOUDY    61  57  88 CALM      29.78S
CADILLAC       MOCLDY    53  52  97 CALM      29.79F
CHARLEVOIX     CLOUDY    63  58  83 CALM      29.81R
FRANKFORT      CLOUDY    64  57  79 CALM      29.77S
GAYLORD        CLOUDY    58  56  93 CALM      29.81S
GRAYLING       PTCLDY    49  47  95 CALM      29.81S FOG
HARBOR SPRINGS MOCLDY    62  56  82 CALM      29.78S
HOUGHTON LAKE  PTCLDY    52  51  97 E3        29.81S
MANISTEE       CLOUDY   N/A N/A N/A E3        29.78S
OSCODA         CLEAR     53  53 100 CALM      29.80F
PELLSTON       MOCLDY    56  54  93 CALM      29.79S
ROGERS CITY    PTCLDY    61  55  82 S6        29.80S
TRAVERSE CITY  CLOUDY    61  58  90 SE3       29.77S
$$
MIZ007>008-015-301000-
EASTERN UPPER MICHIGAN

CITY           SKY/WX    TMP DP  RH WIND       PRES   REMARKS
KINROSS        CLOUDY    63  57  82 CALM      29.79S
MACKINAC ISLAN MOCLDY    60  55  82 CALM      29.78S HAZE
NEWBERRY       CLOUDY    59  58  99 SW5       29.77S FOG
S. S. MARIE    CLOUDY    59  54  83 CALM      29.79R
MUNISING         N/A     55  52  89 N3        29.78R
$$
MIZ004>006-011>014-085-301000-
CENTRAL UPPER MICHIGAN

CITY           SKY/WX    TMP DP  RH WIND       PRES   REMARKS
MANISTIQUE     LGT RAIN  58  57  97 CALM      29.77S
ESCANABA       CLOUDY    61  57  88 NW3       29.76S
MENOMINEE      CLOUDY    63  57  82 N6        29.76R
SAWYER-GWINN   CLOUDY    51  50  95 NE8       29.79S FOG
$$
MIZ001>003-009>011-084-301000-
WESTERN UPPER MICHIGAN

CITY           SKY/WX    TMP DP  RH WIND       PRES   REMARKS
IRON MOUNTAIN  CLOUDY    61  59  93 NW7       29.78S
HOUGHTON       CLOUDY    50  47  89 N10G22    29.85R
COPPER HARBOR    N/A     48  45  89 N10G22    29.86R
IRONWOOD       CLOUDY    55  55 100 N8        29.86R
$$

ABBREVIATIONS USED IN REMARKS
   TC - TEMPERATURE IN CELSIUS
  WCI - WIND CHILL INDEX
   HX - HEAT INDEX
  VSB - VISIBILITY



USA.gov is the U.S. government's official web portal to all federal, state and local government web resources and services.